Regional Weather Roundup
Issued by NWS

Home | Current Version | Previous Version | Graphics & Text | Print | Product List | Glossary On
Versions: 1 2 3 4 5 6 7 8 9 10 11 12 13 14 15 16 17 18 19 20 21 22 23 24 25 26 27 28
000
ASUS45 KCYS 301610
RWRWY

WYOMING REGIONAL WEATHER ROUNDUP
NATIONAL WEATHER SERVICE CHEYENNE WY
1000 AM MDT THU MAR 30 2017

NOTE:  "FAIR" INDICATES FEW OR NO CLOUDS BELOW 12,000 FEET
WITH NO SIGNIFICANT WEATHER AND/OR OBSTRUCTIONS TO VISIBILITY.

WYZ001-301700-
YELLOWSTONE NATIONAL PARK

CITY           SKY/WX    TMP DP  RH WIND       PRES   REMARKS
LK YELLOWSTONE   N/A     34  33  96 CALM      29.78F
W YELLOWSTONE  NOT AVBL

$$
WYZ002>013-054>058-071-098>099-301700-
NORTHERN WYOMING

CITY           SKY/WX    TMP DP  RH WIND       PRES   REMARKS
JACKSON        PTSUNNY   37  36  93 S12       29.76F WCI  30
CODY           LGT RAIN  47  38  71 NW3       29.71F
GREYBULL       CLOUDY    45  36  70 E6        29.69F
WORLAND        CLOUDY    47  41  80 CALM      29.67F
SHERIDAN       CLOUDY    46  40  79 VRB5      29.70F
BUFFALO        PTSUNNY   51  32  48 N7        29.72S
GILLETTE       CLOUDY    47  38  71 S7        29.71F
HULETT         CLOUDY    46  36  66 CALM      29.74F
NEWCASTLE      FAIR      45  36  70 SE7       29.76S

$$
WYZ014>020-022>026-101>103-301700-
CENTRAL WYOMING

CITY           SKY/WX    TMP DP  RH WIND       PRES   REMARKS
BIG PINEY      FAIR      42  32  67 SW7       29.79F
PINEDALE       CLOUDY    36  34  93 SE5       29.81F WCI  32
DUBOIS         PTSUNNY   43  28  56 W12G24    29.71F
LANDER         FAIR      47  34  60 N5        29.68F
RIVERTON       FAIR      48  36  63 VRB3      29.69F
CASPER         FAIR      53  36  52 SW24G31   29.73F
DOUGLAS        FAIR      47  37  68 SE3       29.74F

$$
WYZ021-027>030-104>119-301700-
SOUTHERN WYOMING

CITY           SKY/WX    TMP DP  RH WIND       PRES   REMARKS
EVANSTON       PTSUNNY   44  28  53 VRB5      29.79F
KEMMERER         N/A     39  34  81 SW6       29.80F WCI  35
FORT BRIDGER   CLOUDY    44  33  65 CALM      29.82F
ROCK SPRINGS   CLOUDY    41  35  79 CALM      29.82F
DIXON            N/A     46  30  54 SW17      29.89S
RAWLINS          N/A     43  31  62 SW16      29.82F
SARATOGA       CLOUDY    46  28  49 SW9       29.84F
LARAMIE        CLOUDY    44  29  55 W21       29.82F
CHEYENNE       PTSUNNY   50  30  46 W12       29.79F
TORRINGTON     FAIR      41  38  89 E5        29.75F
PINE BLUFFS    FAIR      46  37  71 NW5       29.79S

$$




USA.gov is the U.S. government's official web portal to all federal, state and local government web resources and services.